This demonstration page uses our WeatherBlox Daily Observations layout. Learn more.

Left ArrowRight Arrow

36.19886, -115.1175

Hourly Observations for May 26, 2021

Temp ( °F °C ) Dew Point ( °F °C ) Humidity (%) Winds ( mph kmh ) Pressure ( in mb ) Visibility ( mi km ) Precip ( " mm )
12:53 am 00:53 Clear 83 28.3 27 -2.8 13 13 SSW 9 15 29.79 1009 10 16 N/A
1:53 am 01:53 Clear 82 27.8 27 -2.8 13 13 SSW 12 19 29.79 1009 10 16 N/A
2:53 am 02:53 Clear 81 27.2 28 -2.2 14 14 SW 14 22 29.78 1009 10 16 N/A
3:53 am 03:53 Clear 80 26.7 27 -2.8 14 14 SSW 10 17 29.79 1009 10 16 N/A
4:53 am 04:53 Clear 77 25 28 -2.2 16 16 S 14 22 29.79 1009 10 16 N/A
5:53 am 05:53 Sunny 77 25 27 -2.8 16 16 ESE 7 11 29.81 1010 10 16 N/A
6:53 am 06:53 Sunny 77 25 29 -1.7 17 17 NNW 5 7 29.85 1011 10 16 N/A
7:53 am 07:53 Sunny 77 25 29 -1.7 17 17 NW 3 6 29.87 1011 10 16 N/A
8:53 am 08:53 Sunny 78 25.6 29 -1.7 16 16 WNW 3 6 29.88 1012 10 16 N/A
9:53 am 09:53 Sunny 80 26.7 29 -1.7 15 15 NW 3 6 29.89 1012 10 16 N/A
10:53 am 10:53 Sunny 82 27.8 28 -2.2 14 14 N 6 9 29.90 1012 10 16 N/A
11:53 am 11:53 Sunny 86 30 26 -3.3 11 11 N 6 9 29.89 1012 10 16 N/A
12:53 pm 12:53 Sunny 88 31.1 25 -3.9 10 10 N N/A 29.87 1012 10 16 N/A
1:53 pm 13:53 Sunny 90 32.2 24 -4.4 9 9 VRB 3 6 29.85 1011 10 16 N/A
2:53 pm 14:53 Sunny 93 33.9 17 -8.3 6 6 SW 14 22 29.83 1010 10 16 N/A
3:53 pm 15:53 Sunny 92 33.3 21 -6.1 7 7 S 7 11 29.82 1010 10 16 N/A
4:53 pm 16:53 Sunny 94 34.4 14 -10 5 5 SSW 13 20 29.80 1009 10 16 N/A
5:53 pm 17:53 Sunny 93 33.9 15 -9.4 6 6 S 8 13 29.79 1009 10 16 N/A
6:53 pm 18:53 Sunny 92 33.3 21 -6.1 7 7 SSW 14 22 29.79 1009 10 16 N/A
7:53 pm 19:53 Clear 89 31.7 23 -5 9 9 SW 10 17 29.81 1010 10 16 N/A
8:53 pm 20:53 Clear 87 30.6 23 -5 9 9 SW 9 15 29.83 1010 10 16 N/A
9:53 pm 21:53 Clear 86 30 22 -5.6 9 9 SSW 10 17 29.85 1011 10 16 N/A
10:53 pm 22:53 Clear 82 27.8 23 -5 11 11 W 3 6 29.86 1011 10 16 N/A
11:53 pm 23:53 Clear 78 25.6 25 -3.9 14 14 N 7 11 29.86 1011 10 16 N/A

Powered by AerisWeather